カタログに戻る

THOR ABLESTAR DEB *

運用中LEO
NORAD 48812·DEBRIS·🇺🇸 United States

打ち上げ Jun 29, 1961 から Cape Canaveral Space Force Station

Loading…

次のパス (今後24時間)

TLE

最新Source: Space-Track

元期: Sep 13, 2026, 07:23 UTC

1 48812U 61015MQ  26256.30814679  .00000275  00000-0  18500-2 0  9995
2 48812  67.3190  11.2375 0353774 314.6543  42.6116 12.43852667584084

AllMySatでTHOR ABLESTAR DEB *をリアルタイム追跡

Download on the App Store